Wind_Speed
15 14 12 11 8 6 4 2 2 4 6 7 7 6 7 9 10 11 11 10 11 11 11 11 12 12 12 12 12 12 11 10 10 9 9 8 8 7 6 6 6 5 4 4
18 15 13 12 10 7 5 3 1 5 7 8 8 7 6 7 8 8 9 10 9 9 9 9 11 11 11 11 11 11 10 10 9 8 8 8 8 8 7 6 6 5 4 4
18 15 15 14 13 10 8 5 2 5 8 10 9 8 7 7 7 8 8 8 8 8 8 9 9 9 9 9 9 10 9 9 8 7 7 7 7 7 7 7 6 6 5 5
20 19 18 17 15 13 10 7 6 6 9 12 9 10 9 8 7 8 8 7 6 6 7 7 7 8 8 8 8 8 9 8 7 7 6 6 5 6 6 6 6 6 6 6
21 21 20 19 16 13 11 10 10 10 11 12 10 10 11 10 8 7 7 6 4 4 5 6 6 7 7 7 7 7 8 7 6 7 6 5 5 5 5 5 5 5 6 6
22 22 21 20 18 15 14 13 13 13 14 13 11 11 11 11 8 8 6 6 3 4 5 6 5 6 6 7 7 6 7 8 9 9 7 6 6 6 5 5 5 5 6 6
24 23 22 21 19 17 16 15 15 16 16 15 13 14 12 11 10 8 7 6 4 4 5 5 5 6 6 6 7 6 7 8 8 9 9 7 6 6 6 6 6 6 6 6
24 24 23 21 20 18 17 17 16 16 17 16 16 14 13 11 10 9 6 5 5 5 4 4 5 5 6 6 6 6 7 8 8 8 9 8 8 7 7 7 6 7 7 7
24 23 22 21 20 21 19 19 17 17 17 16 16 15 14 12 12 10 8 8 6 6 4 4 4 5 5 6 6 7 7 7 8 8 9 9 9 9 9 8 8 8 8 9
24 24 24 22 23 23 21 19 19 19 18 18 17 17 15 12 11 10 10 8 7 6 4 3 4 5 6 6 7 7 7 8 8 9 9 9 10 10 10 9 9 9 10 10
24 25 24 24 25 23 23 22 21 20 20 19 18 16 15 13 12 11 11 9 8 7 7 5 6 6 6 6 7 7 8 8 9 9 10 10 11 10 10 10 10 11 11 11
26 27 26 26 25 24 23 23 22 22 21 21 21 19 16 15 13 13 12 12 10 8 7 6 7 7 7 7 8 8 8 8 9 10 10 11 11 12 11 11 12 12 13 13
28 29 29 28 26 27 26 25 24 23 22 22 22 20 18 15 15 15 15 14 11 9 10 9 9 9 9 9 9 9 9 9 10 10 11 12 13 13 13 13 13 14 14 14
29 30 30 30 27 27 27 26 24 25 25 23 22 22 20 19 17 17 17 16 13 12 12 11 12 12 12 12 11 10 10 11 11 12 12 13 14 14 14 14 15 16 16 15
32 32 31 31 29 28 28 27 25 25 26 25 23 23 22 21 20 19 18 17 16 15 14 13 14 14 14 13 13 13 12 13 13 13 14 15 15 16 16 15 16 17 17 16
32 33 32 31 31 30 30 29 28 27 26 26 25 24 23 22 21 20 19 19 18 17 17 16 15 15 15 15 15 15 15 16 16 16 16 16 16 17 17 18 19 18 18 18
32 32 33 32 32 32 31 29 29 28 27 27 26 24 24 24 23 22 21 20 20 19 19 18 18 18 18 18 17 17 17 18 18 18 19 18 18 18 19 19 20 20 19 19
33 33 33 33 33 34 31 30 30 29 28 27 27 27 27 26 25 24 22 22 22 21 20 21 21 20 20 20 19 19 19 19 20 20 21 20 19 19 20 20 21 21 21 20
33 34 34 34 34 34 33 31 31 30 29 29 28 26 26 26 27 26 25 24 24 24 24 24 23 22 22 22 21 21 21 21 22 22 22 22 21 21 21 21 22 22 22 22
34 34 34 33 34 35 33 32 31 32 31 30 29 28 28 28 29 28 27 27 26 27 26 26 26 25 24 24 23 23 24 24 24 24 24 24 24 24 24 23 24 24 23 24
34 34 34 34 34 34 32 32 32 33 31 29 29 28 27 29 29 29 30 29 28 28 28 28 27 27 26 26 26 25 25 26 26 26 26 26 26 26 26 26 26 25 25 25
36 35 34 34 34 34 31 31 31 32 31 30 29 28 29 29 29 30 31 30 29 29 29 29 29 28 28 27 27 28 28 28 28 28 28 28 28 28 28 28 28 27 27 27
35 35 34 35 33 32 31 32 33 33 33 32 30 29 30 31 32 32 32 32 32 30 30 30 30 30 30 30 30 30 30 30 30 30 30 30 30 29 28 28 28 29 29 28
33 33 34 33 33 32 32 32 34 34 34 33 31 31 31 31 32 32 32 32 31 30 31 31 32 33 33 33 32 32 32 32 31 31 31 31 31 31 30 29 30 29 30 30
33 33 34 33 33 33 32 32 33 34 34 33 33 32 32 32 32 32 33 33 33 33 32 32 33 33 33 33 32 32 32 32 32 32 33 33 32 32 31 30 30 30 30 31
32 33 32 32 32 32 32 32 32 33 34 33 32 31 32 32 31 31 32 32 33 32 32 32 32 32 32 32 32 32 32 32 32 33 33 33 33 32 31 30 30 30 31 31
Wind_Direction
198 192 184 180 174 161 146 123 356 351 342 339 341 357 10 23 23 24 29 37 44 47 49 52 54 54 54 54 53 52 51 54 58 55 53 52 50 49 47 44 46 45 40 32
202 193 185 187 186 183 177 191 338 334 334 333 326 321 338 3 9 19 26 30 35 39 47 50 51 51 51 50 49 46 45 46 48 46 46 45 44 43 42 39 39 38 32 22
206 192 194 195 191 195 196 208 247 311 313 311 311 312 322 336 357 9 14 23 26 28 38 45 44 44 42 40 39 39 37 35 38 39 39 41 40 37 35 35 36 35 29 21
206 196 198 199 197 202 207 219 236 272 292 297 300 313 320 327 341 352 1 9 15 17 26 34 36 37 36 32 30 30 29 28 30 28 25 30 35 32 27 24 24 25 23 19
210 203 204 208 205 213 219 229 238 254 272 282 287 295 306 313 327 338 347 352 357 360 5 15 20 24 29 25 17 18 20 21 21 18 15 18 22 20 14 11 11 11 8 4
212 209 208 207 205 213 222 231 240 246 256 265 274 281 295 298 312 321 326 328 325 326 338 350 359 10 12 10 11 7 11 13 9 6 5 7 4 2 360 359 358 357 356 354
214 212 210 208 208 214 220 228 237 242 248 259 265 275 291 297 302 309 316 318 310 312 321 330 334 350 355 354 359 8 2 4 2 359 1 358 356 350 346 343 341 340 342 342
216 213 209 209 214 218 221 227 237 244 250 257 263 270 289 294 293 301 302 297 289 287 299 317 326 329 337 340 346 352 353 355 355 355 358 358 359 351 342 337 334 332 331 331
218 212 209 213 218 221 222 227 237 245 247 256 259 268 281 290 298 301 298 291 278 272 288 309 319 326 324 331 337 340 341 345 346 347 347 348 346 346 342 333 328 322 320 322
220 216 211 214 219 222 223 226 235 239 247 254 258 266 277 290 298 304 305 296 295 268 276 286 297 309 314 323 325 326 332 333 334 333 334 337 336 337 337 332 326 322 318 317
223 222 216 217 220 220 222 224 231 239 245 253 260 265 274 283 294 303 303 299 301 280 264 270 290 297 304 308 312 315 322 324 325 324 323 326 327 326 327 328 325 322 317 313
223 224 223 222 221 220 223 225 230 238 245 250 255 262 270 279 289 297 297 297 300 286 275 276 285 292 295 296 298 303 309 314 316 316 315 316 317 318 320 319 318 317 315 310
223 225 225 224 222 220 222 225 231 239 245 249 255 260 269 277 284 289 291 290 289 282 275 277 279 283 286 288 291 298 305 309 309 309 310 311 313 311 313 313 312 311 310 311
225 227 228 226 223 220 222 224 233 238 243 247 253 259 263 271 280 285 287 286 283 280 271 273 277 280 284 285 285 288 297 301 304 305 306 307 307 308 309 310 309 307 305 307
225 228 230 229 226 224 225 226 230 236 240 245 249 255 261 267 276 279 278 279 281 275 274 274 274 278 284 287 286 285 291 297 300 304 307 309 306 307 308 307 307 307 303 302
227 228 228 229 228 228 227 228 229 232 237 243 248 252 258 263 267 273 277 278 279 277 279 278 276 281 284 286 286 286 289 292 295 296 298 300 304 305 305 304 305 304 303 301
229 229 228 228 228 228 229 228 229 232 237 242 247 251 255 260 265 270 274 279 281 279 277 277 280 280 282 282 283 285 287 289 290 291 294 297 300 300 300 299 301 302 301 300
230 231 230 228 229 231 230 231 232 234 239 243 247 249 254 258 264 269 272 277 278 277 280 282 280 280 280 280 282 282 281 284 287 290 290 292 296 297 297 297 299 300 300 298
230 231 232 231 232 232 232 233 235 235 238 241 246 250 254 257 261 264 269 273 274 273 275 278 280 278 276 278 280 280 281 283 286 288 290 292 293 293 293 294 296 297 296 295
229 230 232 233 235 236 234 236 237 236 238 241 245 249 252 256 260 265 272 273 272 271 274 277 278 278 277 278 278 280 280 282 284 286 288 290 290 290 291 291 293 295 294 293
229 230 231 233 235 237 237 240 239 239 240 243 248 251 253 255 259 264 270 270 270 272 274 275 276 278 277 278 278 279 279 280 282 285 286 287 289 289 289 288 290 291 291 292
227 230 232 233 235 236 239 242 243 245 245 246 250 254 256 258 262 266 269 269 270 271 274 275 277 277 277 276 277 277 277 278 280 281 283 285 287 288 288 288 286 286 288 290
226 228 231 234 236 239 240 241 243 247 250 251 254 256 258 261 264 268 270 270 269 270 271 272 273 275 276 276 277 275 275 276 278 279 281 283 285 287 286 287 288 287 287 288
227 229 233 236 238 239 239 241 244 248 252 253 255 257 258 261 264 266 269 270 269 271 274 274 275 276 277 278 277 274 274 275 276 277 279 282 283 285 287 288 288 289 289 289
229 232 235 238 240 241 243 244 245 248 251 254 256 258 260 262 265 267 267 268 270 272 272 273 275 276 276 277 276 273 273 274 275 276 278 280 281 285 286 287 288 290 290 290
230 232 234 238 241 244 246 246 248 250 252 253 256 258 260 262 264 265 267 270 270 271 273 274 274 275 276 276 276 274 272 272 274 275 276 278 280 283 284 286 287 288 289 288
Height
5908 5911 5913 5915 5916 5917 5917 5918 5918 5918 5918 5918 5917 5917 5917 5916 5915 5914 5913 5911 5910 5908 5907 5905 5904 5903 5902 5901 5900 5899 5897 5896 5895 5894 5893 5892 5891 5890 5890 5889 5888 5887 5887 5886
5906 5909 5912 5913 5914 5915 5916 5917 5917 5917 5917 5917 5917 5917 5916 5916 5914 5914 5913 5912 5911 5909 5908 5906 5905 5904 5903 5902 5901 5900 5899 5898 5896 5895 5894 5893 5892 5891 5890 5889 5888 5887 5887 5886
5903 5908 5909 5910 5912 5913 5915 5916 5917 5917 5917 5916 5916 5915 5915 5915 5914 5914 5913 5912 5911 5910 5909 5907 5906 5905 5904 5903 5902 5901 5899 5898 5897 5896 5895 5894 5893 5892 5891 5889 5888 5887 5886 5885
5900 5904 5906 5907 5909 5911 5913 5914 5915 5916 5916 5915 5914 5913 5913 5913 5913 5912 5912 5911 5911 5910 5909 5908 5906 5905 5904 5903 5902 5901 5899 5898 5897 5896 5895 5894 5893 5891 5890 5889 5888 5887 5886 5885
5896 5900 5902 5904 5907 5909 5910 5912 5913 5913 5914 5913 5913 5912 5913 5911 5911 5911 5911 5910 5909 5909 5909 5908 5906 5906 5904 5903 5902 5900 5898 5897 5896 5895 5894 5893 5892 5890 5889 5889 5888 5887 5886 5884
5893 5896 5898 5901 5904 5906 5908 5909 5910 5911 5911 5912 5912 5912 5911 5910 5909 5909 5909 5908 5908 5908 5907 5906 5906 5905 5904 5903 5902 5900 5899 5897 5896 5895 5893 5892 5891 5890 5889 5888 5887 5886 5885 5883
5888 5891 5894 5897 5900 5902 5904 5906 5907 5908 5908 5909 5910 5909 5910 5908 5907 5907 5907 5907 5906 5905 5905 5905 5904 5904 5903 5902 5901 5900 5898 5897 5895 5894 5892 5891 5890 5889 5888 5887 5886 5885 5884 5882
5883 5887 5890 5893 5896 5898 5900 5902 5904 5905 5905 5906 5906 5906 5907 5906 5906 5906 5905 5905 5904 5903 5903 5903 5903 5902 5902 5901 5900 5899 5898 5896 5895 5893 5892 5891 5889 5888 5887 5886 5885 5884 5882 5881
5878 5883 5887 5889 5892 5894 5896 5898 5900 5901 5900 5901 5902 5902 5903 5902 5903 5903 5903 5902 5902 5901 5901 5901 5901 5900 5900 5899 5899 5898 5897 5895 5893 5892 5891 5889 5888 5887 5885 5884 5883 5882 5881 5879
5874 5878 5881 5885 5887 5889 5892 5894 5896 5896 5897 5897 5898 5898 5900 5899 5899 5900 5900 5900 5899 5899 5899 5899 5899 5899 5898 5897 5897 5896 5895 5894 5892 5890 5889 5888 5886 5885 5884 5882 5881 5880 5878 5877
5869 5873 5876 5879 5881 5884 5887 5889 5890 5892 5893 5894 5894 5897 5896 5896 5896 5897 5897 5896 5896 5896 5896 5896 5897 5896 5896 5895 5895 5894 5893 5892 5890 5889 5887 5886 5885 5883 5882 5880 5878 5877 5875 5874
5863 5867 5870 5874 5877 5880 5882 5884 5886 5888 5889 5889 5890 5894 5892 5893 5894 5893 5893 5893 5892 5893 5893 5893 5893 5894 5894 5893 5892 5892 5890 5889 5888 5886 5885 5884 5882 5881 5879 5878 5876 5874 5872 5870
5857 5861 5864 5868 5873 5875 5876 5879 5881 5883 5884 5884 5886 5889 5888 5889 5890 5890 5891 5890 5890 5890 5890 5890 5890 5890 5890 5890 5889 5889 5887 5886 5885 5883 5882 5881 5880 5878 5876 5875 5873 5871 5869 5867
5851 5855 5858 5862 5866 5868 5871 5873 5875 5877 5878 5879 5881 5883 5884 5885 5886 5887 5887 5886 5886 5886 5886 5887 5887 5887 5887 5886 5886 5885 5883 5882 5881 5880 5879 5878 5876 5875 5873 5871 5869 5867 5865 5863
5845 5849 5852 5856 5860 5863 5865 5868 5870 5872 5873 5875 5876 5877 5879 5881 5882 5882 5882 5883 5883 5883 5883 5883 5883 5882 5882 5881 5881 5880 5879 5878 5877 5876 5875 5874 5872 5871 5869 5867 5865 5863 5861 5859
5838 5842 5846 5849 5853 5856 5859 5862 5864 5866 5867 5869 5870 5872 5874 5875 5876 5876 5877 5878 5878 5878 5879 5878 5878 5877 5877 5877 5876 5876 5875 5874 5873 5872 5871 5870 5868 5866 5865 5863 5861 5859 5856 5855
5832 5835 5839 5843 5846 5849 5853 5856 5858 5860 5861 5864 5865 5867 5868 5869 5870 5871 5871 5872 5872 5873 5873 5873 5874 5873 5872 5871 5871 5870 5870 5869 5868 5867 5866 5865 5863 5861 5860 5858 5856 5854 5851 5849
5826 5829 5832 5836 5840 5842 5849 5849 5851 5853 5855 5857 5859 5861 5862 5864 5865 5865 5866 5866 5866 5866 5867 5867 5867 5867 5866 5865 5865 5865 5864 5863 5862 5861 5860 5859 5857 5856 5854 5852 5851 5848 5846 5844
5818 5822 5825 5828 5831 5835 5840 5842 5844 5846 5848 5850 5852 5854 5856 5857 5858 5858 5859 5859 5859 5860 5860 5860 5860 5860 5859 5859 5859 5858 5858 5857 5856 5855 5854 5852 5851 5850 5848 5846 5845 5842 5840 5838
5810 5814 5818 5821 5824 5827 5833 5835 5836 5839 5841 5843 5845 5846 5848 5849 5851 5852 5852 5852 5852 5853 5854 5854 5854 5853 5853 5852 5851 5851 5851 5850 5849 5848 5847 5846 5845 5843 5842 5840 5838 5835 5833 5831
5802 5805 5809 5813 5816 5819 5824 5827 5828 5832 5835 5836 5838 5839 5840 5842 5844 5846 5845 5845 5845 5846 5847 5847 5847 5847 5846 5845 5844 5844 5843 5842 5842 5841 5840 5839 5837 5835 5834 5832 5830 5828 5826 5824
5794 5798 5802 5805 5808 5814 5817 5819 5821 5823 5827 5829 5831 5832 5834 5835 5836 5837 5838 5838 5838 5839 5839 5839 5839 5839 5838 5837 5837 5836 5836 5835 5834 5833 5832 5831 5829 5827 5825 5823 5821 5819 5818 5816
5787 5791 5795 5798 5803 5806 5809 5812 5814 5816 5819 5822 5824 5825 5827 5828 5829 5829 5829 5829 5830 5830 5831 5831 5831 5830 5830 5829 5829 5828 5827 5827 5826 5825 5823 5822 5820 5818 5816 5815 5812 5811 5809 5807
5780 5783 5787 5791 5794 5797 5800 5803 5806 5809 5811 5813 5815 5817 5818 5819 5820 5821 5821 5821 5821 5821 5822 5822 5822 5821 5821 5820 5819 5819 5818 5817 5817 5816 5815 5813 5811 5809 5808 5806 5805 5803 5801 5799
5773 5776 5780 5783 5786 5789 5792 5795 5798 5801 5803 5805 5807 5809 5810 5810 5811 5811 5811 5811 5812 5812 5812 5812 5812 5811 5811 5810 5810 5809 5808 5807 5807 5806 5805 5804 5802 5801 5799 5797 5796 5794 5792 5790
5765 5769 5773 5776 5779 5782 5785 5787 5790 5792 5794 5796 5798 5800 5801 5801 5801 5802 5802 5802 5802 5803 5802 5802 5802 5801 5801 5800 5800 5799 5798 5798 5797 5796 5795 5794 5793 5791 5790 5788 5786 5784 5783 5781